Location: Peebles
(55.6412°N, 3.1714°W)
Time: 10:51:58
(UTC+01:00)

IRIDIUM 33 DEB - Pass Details

Date: 05 July 2022
Orbit: 580 x 634 km, 86.4° (Epoch: 16 August)

Event Time Altitude Azimuth Distance (km) Brightness Sun altitude
Rises 02:01:28 0° 360° (N) 2,817 ? -11.0°
Reaches altitude 10° 02:03:50 10° 10° (N) 1,915 ? -10.9°
Maximum altitude 02:07:40 33° 75° (ENE) 989 ? -10.8°
Drops below altitude 10° 02:11:30 10° 141° (SE) 1,918 ? -10.7°
Enters shadow 02:12:34 - 147° (SSE) 2,319 ? -10.7°
